Location: Marcé
(47.5801°N, 0.3280°W)
Time: 21:19:05
(UTC+01:00)

Tiros 1 despin weight - Pass Details

Date: 15 December 2021
Orbit: 592 x 641 km, 48.2° (Epoch: 16 January)

Event Time Altitude Azimuth Distance (km) Brightness Sun altitude
Rises 10:51:06 0° 245° (WSW) 2,875 ? 13.7°
Reaches altitude 10° 10:53:25 10° 243° (WSW) 1,963 ? 13.9°
Maximum altitude 10:57:54 69° 161° (SSE) 651 ? 14.3°
Drops below altitude 10° 11:02:19 10° 79° (ENE) 1,940 ? 14.6°
Sets 11:04:36 0° 76° (ENE) 2,838 ? 14.8°
